When you browse on this site, cookies collect data to enhance your experience and personalize the content and advertising you see.
Visit our Privacy Policy to learn more. By continuing to use the site, you agree to this use of cookies and data.
  • En España
  • Lista de países
  • Para 7 días
  • Temperatura del agua
  • El tiempo en el mapa
  • Informadores
  • user-avatar
    Iniciar sesión

    Tiempo cada hora Ankona

    Hoy, 17 Noviembre, Domingo

    Tiempo Temperatura Precipitaciones Viento Presión Humedad
    00:00 +12°C° 0 mm 4 mps 751 mmHg 94%
    01:00 +12°C° 0 mm 4 mps 750 mmHg 94%
    02:00 +12°C° 0 mm 5 mps 750 mmHg 93%
    03:00 +11°C° 0 mm 6 mps 749 mmHg 93%
    04:00 +10°C° 0 mm 7 mps 748 mmHg 92%
    05:00 +11°C° 0 mm 8 mps 748 mmHg 88%
    06:00 +11°C° 0 mm 8 mps 748 mmHg 85%
    07:00 +11°C° 0 mm 9 mps 747 mmHg 81%
    08:00 +11°C° 0.5 mm 7 mps 748 mmHg 84%
    09:00 +12°C° 0.5 mm 5 mps 748 mmHg 87%
    10:00 +12°C° 0.5 mm 3 mps 749 mmHg 90%
    11:00 +13°C° 0.5 mm 3 mps 749 mmHg 89%
    12:00 +14°C° 0.5 mm 2 mps 749 mmHg 88%
    13:00 +14°C° 0.5 mm 2 mps 749 mmHg 87%
    14:00 +14°C° 0.1 mm 2 mps 750 mmHg 87%
    15:00 +15°C° 0.1 mm 1 mps 750 mmHg 87%
    16:00 +15°C° 0.1 mm 1 mps 750 mmHg 87%
    17:00 +14°C° 0.7 mm 2 mps 750 mmHg 86%
    18:00 +13°C° 0.7 mm 3 mps 750 mmHg 85%
    19:00 +12°C° 0.7 mm 4 mps 751 mmHg 85%
    20:00 +12°C° 0.2 mm 4 mps 751 mmHg 82%
    21:00 +11°C° 0.2 mm 4 mps 752 mmHg 80%
    22:00 +10°C° 0.2 mm 3 mps 752 mmHg 77%
    23:00 +10°C° 0 mm 4 mps 752 mmHg 78%

    Mañana, 18 Noviembre, Lunes

    Tiempo Temperatura Precipitaciones Viento Presión Humedad
    00:00 +10°C° 0 mm 4 mps 752 mmHg 78%
    01:00 +8°C° 0 mm 5 mps 753 mmHg 78%
    02:00 +8°C° 0 mm 4 mps 753 mmHg 79%
    03:00 +9°C° 0 mm 3 mps 753 mmHg 79%
    04:00 +8°C° 0 mm 2 mps 754 mmHg 80%
    05:00 +8°C° 0 mm 3 mps 754 mmHg 80%
    06:00 +8°C° 0 mm 3 mps 755 mmHg 80%
    07:00 +8°C° 0 mm 3 mps 755 mmHg 80%
    08:00 +8°C° 0 mm 4 mps 755 mmHg 75%
    09:00 +11°C° 0 mm 4 mps 756 mmHg 70%
    10:00 +12°C° 0 mm 5 mps 756 mmHg 65%
    11:00 +13°C° 0 mm 5 mps 756 mmHg 63%
    12:00 +14°C° 0 mm 6 mps 756 mmHg 62%
    13:00 +15°C° 0 mm 7 mps 756 mmHg 60%
    14:00 +13°C° 0 mm 8 mps 755 mmHg 64%
    15:00 +13°C° 0 mm 8 mps 755 mmHg 68%
    16:00 +12°C° 0 mm 8 mps 755 mmHg 72%
    17:00 +11°C° 0 mm 7 mps 755 mmHg 73%
    18:00 +11°C° 0 mm 6 mps 755 mmHg 74%
    19:00 +10°C° 0 mm 5 mps 755 mmHg 74%
    20:00 +10°C° 0 mm 5 mps 755 mmHg 73%
    21:00 +10°C° 0 mm 5 mps 755 mmHg 73%
    22:00 +10°C° 0 mm 5 mps 755 mmHg 72%
    23:00 +11°C° 0 mm 4 mps 755 mmHg 71%

    Pasado mañana, 19 Noviembre, Martes

    Tiempo Temperatura Precipitaciones Viento Presión Humedad
    00:00 +11°C° 0 mm 4 mps 755 mmHg 71%
    01:00 +11°C° 0 mm 3 mps 755 mmHg 70%
    02:00 +11°C° 0 mm 3 mps 755 mmHg 70%
    03:00 +11°C° 0 mm 3 mps 754 mmHg 70%
    04:00 +11°C° 0 mm 3 mps 754 mmHg 70%
    05:00 +11°C° 0.1 mm 3 mps 754 mmHg 74%
    06:00 +11°C° 0.1 mm 4 mps 754 mmHg 77%
    07:00 +11°C° 0.1 mm 4 mps 754 mmHg 80%
    08:00 +11°C° 0.3 mm 3 mps 755 mmHg 80%
    09:00 +12°C° 0.3 mm 3 mps 755 mmHg 80%
    10:00 +13°C° 0.3 mm 2 mps 755 mmHg 80%
    11:00 +13°C° 0.4 mm 2 mps 755 mmHg 81%
    12:00 +12°C° 0.4 mm 3 mps 755 mmHg 83%
    13:00 +12°C° 0.4 mm 3 mps 755 mmHg 84%
    14:00 +12°C° 0.1 mm 3 mps 755 mmHg 86%
    15:00 +12°C° 0.1 mm 3 mps 755 mmHg 88%
    16:00 +11°C° 0.1 mm 3 mps 755 mmHg 89%
    17:00 +11°C° 0.6 mm 3 mps 756 mmHg 90%
    18:00 +11°C° 0.6 mm 4 mps 756 mmHg 90%
    19:00 +11°C° 0.6 mm 4 mps 756 mmHg 90%
    20:00 +11°C° 0.2 mm 4 mps 756 mmHg 90%
    21:00 +9°C° 0.2 mm 5 mps 756 mmHg 89%
    22:00 +9°C° 0.2 mm 5 mps 757 mmHg 89%
    23:00 +9°C° 0 mm 5 mps 757 mmHg 88%

    20 Noviembre, Miércoles

    Tiempo Temperatura Precipitaciones Viento Presión Humedad
    00:00 +9°C° 0 mm 5 mps 757 mmHg 87%
    01:00 +9°C° 0 mm 6 mps 757 mmHg 86%
    02:00 +8°C° 0 mm 5 mps 757 mmHg 87%
    03:00 +8°C° 0 mm 5 mps 757 mmHg 88%
    04:00 +7°C° 0 mm 5 mps 757 mmHg 88%
    05:00 +7°C° 0 mm 5 mps 757 mmHg 88%
    06:00 +7°C° 0 mm 5 mps 757 mmHg 87%
    07:00 +6°C° 0 mm 4 mps 757 mmHg 86%
    08:00 +8°C° 0 mm 4 mps 758 mmHg 79%
    09:00 +10°C° 0 mm 4 mps 758 mmHg 72%
    10:00 +11°C° 0 mm 4 mps 759 mmHg 65%
    11:00 +12°C° 0 mm 4 mps 759 mmHg 61%
    12:00 +13°C° 0 mm 4 mps 759 mmHg 57%
    13:00 +14°C° 0 mm 4 mps 759 mmHg 53%
    14:00 +14°C° 0 mm 3 mps 759 mmHg 56%
    15:00 +13°C° 0 mm 3 mps 759 mmHg 59%
    16:00 +13°C° 0 mm 2 mps 759 mmHg 62%
    17:00 +13°C° 0 mm 2 mps 759 mmHg 65%
    18:00 +12°C° 0 mm 2 mps 759 mmHg 67%
    19:00 +10°C° 0 mm 2 mps 759 mmHg 70%
    20:00 +10°C° 0 mm 2 mps 759 mmHg 71%
    21:00 +9°C° 0 mm 3 mps 759 mmHg 73%
    22:00 +9°C° 0 mm 3 mps 760 mmHg 74%
    23:00 +9°C° 0 mm 3 mps 759 mmHg 74%

    21 Noviembre, Jueves

    Tiempo Temperatura Precipitaciones Viento Presión Humedad
    00:00 +9°C° 0 mm 3 mps 759 mmHg 73%
    01:00 +9°C° 0 mm 3 mps 759 mmHg 72%
    02:00 +8°C° 0 mm 3 mps 759 mmHg 71%
    03:00 +8°C° 0 mm 3 mps 759 mmHg 70%
    04:00 +8°C° 0 mm 3 mps 758 mmHg 69%
    05:00 +8°C° 0 mm 3 mps 758 mmHg 68%
    06:00 +7°C° 0 mm 4 mps 758 mmHg 66%
    07:00 +8°C° 0 mm 4 mps 758 mmHg 65%
    08:00 +10°C° 0 mm 4 mps 758 mmHg 63%
    09:00 +11°C° 0 mm 4 mps 758 mmHg 61%
    10:00 +12°C° 0 mm 4 mps 758 mmHg 58%
    11:00 +13°C° 0 mm 4 mps 758 mmHg 57%
    12:00 +13°C° 0 mm 3 mps 758 mmHg 55%
    13:00 +14°C° 0 mm 3 mps 757 mmHg 53%
    14:00 +14°C° 0 mm 3 mps 757 mmHg 57%
    15:00 +13°C° 0 mm 3 mps 757 mmHg 62%
    16:00 +13°C° 0 mm 3 mps 757 mmHg 66%
    17:00 +12°C° 0 mm 3 mps 757 mmHg 66%
    18:00 +12°C° 0 mm 4 mps 757 mmHg 67%
    19:00 +11°C° 0 mm 4 mps 757 mmHg 67%
    20:00 +11°C° 0 mm 4 mps 757 mmHg 69%
    21:00 +11°C° 0 mm 4 mps 757 mmHg 71%
    22:00 +10°C° 0 mm 4 mps 757 mmHg 72%
    23:00 +10°C° 0 mm 3 mps 757 mmHg 73%

    22 Noviembre, Viernes

    Tiempo Temperatura Precipitaciones Viento Presión Humedad
    00:00 +10°C° 0 mm 3 mps 757 mmHg 73%
    01:00 +10°C° 0 mm 3 mps 757 mmHg 74%
    02:00 +10°C° 0 mm 3 mps 757 mmHg 75%
    03:00 +10°C° 0 mm 3 mps 757 mmHg 76%
    04:00 +10°C° 0 mm 3 mps 757 mmHg 77%
    05:00 +10°C° 0 mm 3 mps 757 mmHg 77%
    06:00 +10°C° 0 mm 4 mps 757 mmHg 77%
    07:00 +10°C° 0 mm 4 mps 757 mmHg 77%
    08:00 +11°C° 0 mm 4 mps 758 mmHg 74%
    09:00 +12°C° 0 mm 4 mps 758 mmHg 70%
    10:00 +14°C° 0 mm 4 mps 758 mmHg 67%
    11:00 +14°C° 0 mm 4 mps 758 mmHg 66%
    12:00 +15°C° 0 mm 5 mps 758 mmHg 65%
    13:00 +16°C° 0 mm 5 mps 758 mmHg 64%
    14:00 +15°C° 0 mm 5 mps 758 mmHg 67%
    15:00 +14°C° 0 mm 5 mps 758 mmHg 71%
    16:00 +14°C° 0 mm 5 mps 758 mmHg 75%
    17:00 +13°C° 0 mm 5 mps 758 mmHg 77%
    18:00 +13°C° 0 mm 5 mps 758 mmHg 79%
    19:00 +12°C° 0 mm 4 mps 758 mmHg 81%
    20:00 +12°C° 0 mm 4 mps 758 mmHg 81%
    21:00 +12°C° 0 mm 4 mps 758 mmHg 82%
    22:00 +12°C° 0 mm 4 mps 758 mmHg 82%
    23:00 +12°C° 0 mm 4 mps 758 mmHg 82%
    Mostrar más